�������l�o���
Date,Time,MP-1(��Sv/h),MP-2(��Sv/h),MP-3(��Sv/h),MP-4(��Sv/h),MP-5(��Sv/h),MP-6(��Sv/h),MP-7(��Sv/h),MP-8(��Sv/h),����,����(m/s),���J
2021/01/20,00:00,0.658,0.943,0.601,1.187,0.838,0.374,0.666,0.629,�k�k��,0.6,��
2021/01/20,00:10,0.658,0.943,0.601,1.192,0.839,0.375,0.663,0.630,-,CALM,��
2021/01/20,00:20,0.658,0.945,0.600,1.191,0.837,0.375,0.665,0.629,�k,1.2,��
2021/01/20,00:30,0.659,0.944,0.601,1.185,0.835,0.374,0.665,0.628,�k,2.0,��
2021/01/20,00:40,0.658,0.942,0.602,1.186,0.837,0.374,0.664,0.628,��쓌,0.6,��
2021/01/20,00:50,0.657,0.946,0.602,1.189,0.838,0.375,0.665,0.627,-,CALM,��
2021/01/20,01:00,0.658,0.944,0.601,1.190,0.838,0.375,0.665,0.628,�k��,1.1,��
2021/01/20,01:10,0.658,0.942,0.601,1.190,0.835,0.374,0.664,0.630,�k�k��,2.2,��
2021/01/20,01:20,0.657,0.943,0.600,1.190,0.834,0.372,0.665,0.627,�k,1.7,��
2021/01/20,01:30,0.658,0.944,0.600,1.188,0.836,0.373,0.664,0.629,�k�k��,1.7,��
2021/01/20,01:40,0.659,0.944,0.602,1.189,0.836,0.373,0.665,0.629,�k�k��,2.3,��
2021/01/20,01:50,0.658,0.941,0.602,1.190,0.834,0.373,0.664,0.628,�k�k��,1.7,��
2021/01/20,02:00,0.659,0.943,0.600,1.191,0.837,0.374,0.665,0.629,�k�k��,0.6,��
2021/01/20,02:10,0.658,0.944,0.600,1.190,0.834,0.373,0.665,0.629,�k��,0.6,��
2021/01/20,02:20,0.658,0.943,0.599,1.191,0.835,0.375,0.665,0.628,-,CALM,��
2021/01/20,02:30,0.659,0.941,0.602,1.188,0.836,0.375,0.664,0.630,�k��,0.6,��
2021/01/20,02:40,0.658,0.944,0.599,1.188,0.836,0.374,0.665,0.628,�k��,0.9,��
2021/01/20,02:50,0.657,0.941,0.599,1.191,0.836,0.374,0.664,0.628,�k�k��,2.2,��
2021/01/20,03:00,0.657,0.945,0.600,1.187,0.835,0.373,0.665,0.628,�k��,1.7,��
2021/01/20,03:10,0.658,0.943,0.602,1.189,0.835,0.373,0.665,0.629,�k�k��,1.7,��
2021/01/20,03:20,0.658,0.942,0.600,1.186,0.835,0.374,0.664,0.628,�k,1.7,��
2021/01/20,03:30,0.658,0.942,0.601,1.188,0.836,0.374,0.665,0.628,�k�k��,1.1,��
2021/01/20,03:40,0.659,0.943,0.600,1.189,0.834,0.374,0.665,0.628,�k��,0.6,��
2021/01/20,03:50,0.659,0.944,0.600,1.190,0.837,0.375,0.665,0.626,-,CALM,��
2021/01/20,04:00,0.658,0.942,0.599,1.190,0.836,0.374,0.663,0.628,-,CALM,��
2021/01/20,04:10,0.659,0.942,0.600,1.188,0.836,0.374,0.664,0.628,�쓌,0.9,��
2021/01/20,04:20,0.659,0.943,0.599,1.190,0.837,0.374,0.664,0.628,���쓌,0.8,��
2021/01/20,04:30,0.658,0.944,0.599,1.189,0.836,0.375,0.664,0.628,���쓌,0.6,��
2021/01/20,04:40,0.659,0.942,0.601,1.189,0.837,0.374,0.665,0.629,-,CALM,��
2021/01/20,04:50,0.658,0.942,0.600,1.192,0.834,0.374,0.665,0.629,�쐼,0.6,��
2021/01/20,05:00,0.658,0.942,0.599,1.189,0.837,0.375,0.664,0.629,���쐼,1.4,��
2021/01/20,05:10,0.657,0.943,0.600,1.191,0.837,0.374,0.667,0.627,��쐼,1.7,��
2021/01/20,05:20,0.658,0.943,0.601,1.191,0.836,0.373,0.666,0.628,�쐼,1.2,��
2021/01/20,05:30,0.659,0.944,0.601,1.190,0.835,0.373,0.665,0.627,��쐼,2.0,��
2021/01/20,05:40,0.658,0.942,0.600,1.192,0.835,0.375,0.665,0.630,��,2.2,��
2021/01/20,05:50,0.658,0.943,0.599,1.189,0.835,0.373,0.665,0.628,��쓌,1.7,��
2021/01/20,06:00,0.657,0.944,0.600,1.189,0.838,0.373,0.665,0.629,��쐼,2.3,��
2021/01/20,06:10,0.658,0.940,0.601,1.189,0.837,0.375,0.666,0.629,��쐼,2.3,��
2021/01/20,06:20,0.659,0.942,0.601,1.189,0.834,0.374,0.665,0.627,��쐼,2.0,��
2021/01/20,06:30,0.659,0.943,0.599,1.193,0.836,0.374,0.665,0.630,�쐼,2.6,��
2021/01/20,06:40,0.658,0.943,0.601,1.190,0.836,0.374,0.665,0.629,���쐼,1.2,��
2021/01/20,06:50,0.659,0.945,0.599,1.192,0.835,0.373,0.664,0.628,�쐼,2.0,��
2021/01/20,07:00,0.659,0.942,0.600,1.188,0.836,0.374,0.664,0.629,�쐼,1.1,��
2021/01/20,07:10,0.658,0.943,0.599,1.190,0.836,0.373,0.664,0.629,�쐼,1.5,��
2021/01/20,07:20,0.657,0.942,0.601,1.192,0.836,0.373,0.665,0.628,�쐼,2.6,��
2021/01/20,07:30,0.659,0.942,0.600,1.190,0.834,0.373,0.664,0.629,���쐼,3.1,��
2021/01/20,07:40,0.659,0.942,0.601,1.188,0.835,0.374,0.665,0.631,�쐼,3.7,��
2021/01/20,07:50,0.658,0.942,0.602,1.191,0.838,0.374,0.665,0.629,��쐼,3.9,��
2021/01/20,08:00,0.659,0.943,0.600,1.190,0.836,0.374,0.666,0.629,��,3.3,��
2021/01/20,08:10,0.657,0.941,0.601,1.191,0.835,0.374,0.664,0.629,��,2.6,��
2021/01/20,08:20,0.659,0.943,0.600,1.192,0.836,0.374,0.663,0.630,�쐼,2.5,��
2021/01/20,08:30,0.658,0.940,0.601,1.189,0.834,0.373,0.666,0.629,���쐼,1.9,��
2021/01/20,08:40,0.657,0.942,0.600,1.191,0.835,0.373,0.666,0.629,�쐼,1.7,��
2021/01/20,08:50,0.659,0.940,0.599,1.192,0.837,0.373,0.665,0.630,��쐼,2.2,��
2021/01/20,09:00,0.656,0.941,0.600,1.191,0.835,0.374,0.666,0.628,�쐼,2.2,��
2021/01/20,09:10,0.660,0.941,0.603,1.191,0.835,0.373,0.667,0.629,��쐼,2.2,��
2021/01/20,09:20,0.659,0.940,0.599,1.191,0.834,0.374,0.665,0.628,��쐼,1.7,��
2021/01/20,09:30,0.659,0.940,0.601,1.190,0.834,0.374,0.666,0.629,�쐼,2.3,��
2021/01/20,09:40,0.660,0.940,0.601,1.191,0.834,0.373,0.666,0.629,��,1.4,��
2021/01/20,09:50,0.659,0.941,0.601,1.191,0.835,0.373,0.666,0.628,���쐼,1.7,��
2021/01/20,10:00,0.660,0.940,0.601,1.191,0.835,0.374,0.665,0.630,��쐼,3.1,��
2021/01/20,10:10,0.660,0.943,0.600,1.190,0.834,0.373,0.665,0.630,��,1.5,��
2021/01/20,10:20,0.661,0.942,0.600,1.188,0.836,0.376,0.663,0.630,�쓌,1.2,��
2021/01/20,10:30,0.660,0.941,0.601,1.188,0.837,0.375,0.666,0.629,���쓌,3.4,��
2021/01/20,10:40,0.661,0.940,0.601,1.191,0.837,0.374,0.663,0.631,���쓌,3.1,��
2021/01/20,10:50,0.662,0.941,0.601,1.193,0.837,0.374,0.666,0.630,���k��,3.1,��
2021/01/20,11:00,0.661,0.940,0.603,1.192,0.838,0.375,0.667,0.629,���k��,2.9,��
2021/01/20,11:10,0.661,0.944,0.603,1.192,0.838,0.375,0.665,0.627,���k��,3.2,��
2021/01/20,11:20,0.661,0.942,0.602,1.191,0.838,0.373,0.666,0.629,��,2.6,��
2021/01/20,11:30,0.660,0.942,0.603,1.191,0.838,0.375,0.667,0.628,��,3.0,��
2021/01/20,11:40,0.661,0.944,0.603,1.190,0.839,0.375,0.668,0.630,���쓌,4.0,��
2021/01/20,11:50,0.661,0.945,0.602,1.187,0.838,0.374,0.665,0.629,��,3.4,��
2021/01/20,12:00,0.661,0.946,0.603,1.192,0.838,0.375,0.666,0.631,��,3.0,��
2021/01/20,12:10,0.661,0.944,0.605,1.192,0.836,0.375,0.669,0.630,��,1.7,��
2021/01/20,12:20,0.662,0.946,0.603,1.193,0.840,0.374,0.668,0.630,��,1.7,��
2021/01/20,12:30,0.662,0.946,0.603,1.192,0.839,0.374,0.666,0.631,�k,2.2,��
2021/01/20,12:40,0.661,0.945,0.603,1.194,0.840,0.374,0.667,0.631,���k��,0.9,��
2021/01/20,12:50,0.661,0.947,0.604,1.194,0.839,0.374,0.667,0.631,�쓌,2.0,��
2021/01/20,13:00,0.661,0.945,0.604,1.192,0.839,0.374,0.667,0.632,�쓌,1.2,��
2021/01/20,13:10,0.663,0.945,0.604,1.191,0.839,0.375,0.668,0.631,�k��,1.2,��
2021/01/20,13:20,0.662,0.946,0.603,1.191,0.841,0.375,0.667,0.630,�쓌,2.3,��
2021/01/20,13:30,0.662,0.946,0.603,1.193,0.839,0.374,0.668,0.631,�쓌,2.5,��
2021/01/20,13:40,0.663,0.944,0.604,1.190,0.839,0.374,0.666,0.629,�쓌,2.2,��
2021/01/20,13:50,0.663,0.944,0.604,1.191,0.838,0.376,0.666,0.629,��,1.7,��
2021/01/20,14:00,0.664,0.945,0.604,1.191,0.840,0.376,0.668,0.629,��,2.3,��
2021/01/20,14:10,0.661,0.945,0.603,1.193,0.839,0.376,0.667,0.629,���k��,2.0,��
2021/01/20,14:20,0.661,0.944,0.603,1.194,0.840,0.374,0.668,0.626,���쓌,1.9,��
2021/01/20,14:30,0.662,0.947,0.603,1.190,0.841,0.375,0.668,0.627,�쓌,1.4,��
2021/01/20,14:40,0.661,0.944,0.603,1.193,0.842,0.376,0.668,0.628,��,2.5,��
2021/01/20,14:50,0.661,0.946,0.604,1.193,0.840,0.376,0.668,0.629,�k�k��,0.9,��
2021/01/20,15:00,0.661,0.945,0.605,1.192,0.840,0.375,0.667,0.630,�k�k��,3.0,��
2021/01/20,15:10,0.663,0.946,0.604,1.191,0.840,0.376,0.667,0.630,�k�k��,3.9,��
2021/01/20,15:20,0.662,0.948,0.604,1.191,0.840,0.375,0.668,0.631,�k��,1.7,��
2021/01/20,15:30,0.662,0.948,0.605,1.192,0.840,0.374,0.667,0.628,�k��,2.8,��
2021/01/20,15:40,0.662,0.946,0.605,1.192,0.840,0.376,0.668,0.631,�k��,4.4,��
2021/01/20,15:50,0.660,0.947,0.604,1.194,0.841,0.375,0.667,0.629,�k��,4.5,��
2021/01/20,16:00,0.661,0.950,0.604,1.194,0.840,0.375,0.667,0.629,�k��,4.2,��
2021/01/20,16:10,0.661,0.949,0.603,1.194,0.842,0.374,0.667,0.629,�k�k��,4.6,��
2021/01/20,16:20,0.662,0.946,0.603,1.192,0.842,0.375,0.668,0.629,�k��,4.4,��
2021/01/20,16:30,0.661,0.949,0.603,1.191,0.839,0.376,0.665,0.630,�k��,4.6,��
2021/01/20,16:40,0.660,0.947,0.603,1.190,0.841,0.374,0.666,0.628,�k��,4.6,��
2021/01/20,16:50,0.660,0.947,0.604,1.193,0.839,0.374,0.666,0.631,�k��,5.5,��
2021/01/20,17:00,0.661,0.946,0.602,1.194,0.839,0.374,0.665,0.628,�k��,5.3,��
2021/01/20,17:10,0.659,0.945,0.603,1.192,0.840,0.374,0.668,0.630,�k��,4.5,��
2021/01/20,17:20,0.659,0.949,0.601,1.190,0.840,0.375,0.667,0.631,�k��,3.3,��
2021/01/20,17:30,0.660,0.948,0.602,1.193,0.839,0.375,0.666,0.629,�k��,3.6,��
2021/01/20,17:40,0.660,0.946,0.602,1.191,0.839,0.374,0.667,0.628,�k��,4.5,��
2021/01/20,17:50,0.660,0.947,0.601,1.193,0.839,0.375,0.665,0.629,���k��,3.4,��
2021/01/20,18:00,0.661,0.946,0.603,1.191,0.839,0.374,0.665,0.628,��,3.9,��
2021/01/20,18:10,0.658,0.947,0.603,1.190,0.839,0.374,0.666,0.628,��,4.9,��
2021/01/20,18:20,0.659,0.947,0.601,1.192,0.839,0.374,0.666,0.631,��,4.7,��
2021/01/20,18:30,0.659,0.947,0.602,1.191,0.841,0.374,0.664,0.629,���k��,4.7,��
2021/01/20,18:40,0.659,0.946,0.602,1.192,0.837,0.373,0.667,0.629,���k��,6.0,��
2021/01/20,18:50,0.660,0.945,0.602,1.190,0.839,0.375,0.666,0.630,���k��,5.0,��
2021/01/20,19:00,0.657,0.945,0.602,1.191,0.840,0.373,0.666,0.628,���k��,5.1,��
2021/01/20,19:10,0.660,0.947,0.603,1.192,0.838,0.373,0.666,0.629,���k��,6.5,��
2021/01/20,19:20,0.658,0.946,0.602,1.191,0.841,0.375,0.667,0.629,�k��,4.6,��
2021/01/20,19:30,0.659,0.945,0.603,1.192,0.842,0.375,0.667,0.628,�k��,5.0,��
2021/01/20,19:40,0.658,0.946,0.601,1.191,0.838,0.374,0.666,0.629,�k��,4.0,��
2021/01/20,19:50,0.660,0.945,0.602,1.191,0.839,0.374,0.665,0.629,�k��,3.8,��
2021/01/20,20:00,0.658,0.946,0.601,1.190,0.837,0.374,0.666,0.628,�k��,3.7,��
2021/01/20,20:10,0.659,0.945,0.602,1.190,0.839,0.375,0.664,0.631,�k��,4.9,��
2021/01/20,20:20,0.659,0.946,0.604,1.193,0.840,0.374,0.665,0.629,�k��,4.5,��
2021/01/20,20:30,0.660,0.949,0.602,1.193,0.839,0.373,0.666,0.630,���k��,4.9,��
2021/01/20,20:40,0.659,0.945,0.601,1.191,0.839,0.375,0.666,0.629,���k��,4.5,��
2021/01/20,20:50,0.659,0.945,0.601,1.190,0.839,0.374,0.666,0.630,���k��,3.7,��
2021/01/20,21:00,0.660,0.944,0.601,1.191,0.838,0.374,0.665,0.628,���k��,4.8,��
2021/01/20,21:10,0.659,0.945,0.601,1.192,0.839,0.374,0.666,0.629,���k��,5.2,��
2021/01/20,21:20,0.660,0.945,0.604,1.192,0.837,0.373,0.664,0.628,���k��,3.9,��
2021/01/20,21:30,0.660,0.946,0.602,1.190,0.839,0.374,0.665,0.628,���k��,3.1,��
2021/01/20,21:40,0.660,0.945,0.601,1.189,0.839,0.373,0.666,0.630,���k��,2.8,��
2021/01/20,21:50,0.659,0.946,0.602,1.192,0.839,0.375,0.666,0.629,��,5.5,��
2021/01/20,22:00,0.659,0.946,0.603,1.191,0.838,0.373,0.664,0.629,���k��,7.3,��
2021/01/20,22:10,0.659,0.947,0.602,1.190,0.839,0.374,0.666,0.627,���k��,7.6,��
2021/01/20,22:20,0.660,0.944,0.601,1.194,0.837,0.374,0.664,0.629,���k��,7.8,��
2021/01/20,22:30,0.660,0.943,0.602,1.191,0.838,0.373,0.666,0.629,���k��,7.6,��
2021/01/20,22:40,0.659,0.946,0.601,1.190,0.839,0.374,0.665,0.629,�k��,6.2,��
2021/01/20,22:50,0.659,0.949,0.600,1.191,0.839,0.374,0.666,0.629,�k��,5.5,��
2021/01/20,23:00,0.660,0.946,0.601,1.192,0.837,0.373,0.666,0.628,�k��,6.7,��
2021/01/20,23:10,0.660,0.947,0.600,1.193,0.839,0.373,0.666,0.628,���k��,5.4,��
2021/01/20,23:20,0.660,0.945,0.600,1.191,0.838,0.374,0.666,0.630,���k��,5.5,��
2021/01/20,23:30,0.661,0.946,0.601,1.192,0.837,0.374,0.666,0.628,�k��,4.5,��
2021/01/20,23:40,0.661,0.946,0.603,1.191,0.839,0.374,0.666,0.629,�k��,4.4,��
2021/01/20,23:50,0.660,0.944,0.603,1.190,0.837,0.374,0.665,0.629,���k��,4.9,��
